This demonstration page uses our WeatherBlox Daily Observations layout. Learn more.

Left ArrowRight Arrow

Hourly Observations for April 22, 2021

Temp ( °F °C ) Dew Point ( °F °C ) Humidity (%) Winds ( mph kmh ) Pressure ( in mb ) Visibility ( mi km ) Precip ( " mm )
12:59 am 00:59 Mostly Cloudy 47 8.3 25 -3.9 42 42 NNW 20 31 30.00 1016 10 16 0.00 0.00
1:59 am 01:59 Mostly Cloudy 45 7.2 26 -3.3 48 48 NW 18 30 30.01 1016 10 16 0.00 0.00
2:59 am 02:59 Partly Cloudy 44 6.7 26 -3.3 49 49 NW 15 24 30.02 1017 10 16 0.00 0.00
3:59 am 03:59 Partly Cloudy 43 6.1 22 -5.6 43 43 NW 18 30 30.04 1017 10 16 0.00 0.00
4:59 am 04:59 Mostly Clear 42 5.6 21 -6.1 43 43 NW 14 22 30.04 1017 10 16 0.00 0.00
5:59 am 05:59 Mostly Clear 42 5.6 21 -6.1 43 43 NW 10 17 30.05 1018 10 16 0.00 0.00
6:59 am 06:59 Sunny 43 6.1 21 -6.1 42 42 NW 10 17 30.07 1018 10 16 0.00 0.00
7:59 am 07:59 Mostly Sunny 43 6.1 26 -3.3 51 51 W 8 13 30.09 1019 10 16 0.00 0.00
8:59 am 08:59 Mostly Sunny 45 7.2 26 -3.3 48 48 W 12 19 30.09 1019 10 16 0.00 0.00
9:59 am 09:59 Mostly Sunny 48 8.9 26 -3.3 42 42 W 12 19 30.09 1019 10 16 0.00 0.00
10:05 am 10:05 Sunny 48 8.9 25 -3.9 41 41 W 14 22 30.09 1019 1 2 0.00 0.00
10:27 am 10:27 Mostly Sunny 49 9.4 26 -3.3 41 41 W 16 26 30.09 1019 10 16 0.00 0.00
10:59 am 10:59 Mostly Sunny 50 10 27 -2.8 41 41 WNW 15 24 30.09 1019 10 16 0.00 0.00
11:59 am 11:59 Partly Cloudy 51 10.6 27 -2.8 39 39 WNW 10 17 30.08 1019 10 16 0.00 0.00
12:59 pm 12:59 Partly Cloudy 54 12.2 24 -4.4 31 31 NW 18 30 30.06 1018 10 16 0.00 0.00
1:59 pm 13:59 Partly Cloudy 53 11.7 24 -4.4 32 32 WNW 14 22 30.05 1018 10 16 0.00 0.00
2:59 pm 14:59 Mostly Cloudy 54 12.2 25 -3.9 33 33 WNW 12 19 30.04 1017 10 16 0.00 0.00
3:59 pm 15:59 Mostly Cloudy 56 13.3 25 -3.9 30 30 NW 14 22 30.02 1017 10 16 0.00 0.00
4:59 pm 16:59 Mostly Cloudy 54 12.2 23 -5 30 30 WNW 15 24 30.02 1017 10 16 0.00 0.00
5:59 pm 17:59 Mostly Cloudy 56 13.3 23 -5 28 28 W 18 30 30.04 1017 10 16 0.00 0.00
6:59 pm 18:59 Mostly Cloudy 54 12.2 23 -5 30 30 W 17 28 30.05 1018 10 16 0.00 0.00
7:59 pm 19:59 Partly Cloudy 53 11.7 24 -4.4 32 32 W 12 19 30.06 1018 10 16 0.00 0.00
8:59 pm 20:59 Partly Cloudy 52 11.1 24 -4.4 34 34 W 9 15 30.08 1019 10 16 0.00 0.00
9:59 pm 21:59 Mostly Clear 52 11.1 25 -3.9 35 35 W 12 19 30.11 1020 10 16 0.00 0.00
10:59 pm 22:59 Partly Cloudy 52 11.1 27 -2.8 38 38 WNW 12 19 30.13 1020 10 16 0.00 0.00
11:59 pm 23:59 Mostly Cloudy 50 10 28 -2.2 43 43 NW 9 15 30.14 1021 10 16 0.00 0.00

Powered by AerisWeather